Location: Gipe Farm
(40.9466°N, 95.5370°W)
Time: 00:02:40
(UTC-05:00)

Cosmos 1842 - Visible Passes

Search period start: 30 August 2016 00:00
Search period end: 09 September 2016 00:00
Orbit: 525 x 542 km, 82.5° (Epoch: 29 August)

Date Brightness Start Highest point End Pass type
(mag) Time Alt. Az. Time Alt. Az. Time Alt. Az.
30 Aug 3.2 21:59:32 10° N 22:03:13 77° NNE 22:03:13 77° NNE visible
31 Aug 3.0 21:50:08 10° N 21:54:02 81° E 21:54:09 80° ESE visible
01 Sep 3.1 21:40:44 10° N 21:44:39 77° E 21:45:07 65° SE visible
02 Sep 3.1 21:31:20 10° N 21:35:14 73° E 21:36:09 50° SSE visible
03 Sep 3.1 21:21:57 10° N 21:25:50 70° E 21:27:12 38° SSE visible
04 Sep 3.1 21:12:32 10° N 21:16:26 66° E 21:18:19 28° SSE visible
05 Sep 3.2 21:03:09 10° N 21:07:01 63° E 21:09:30 21° SSE visible
06 Sep 3.2 20:53:45 10° N 20:57:37 60° E 21:00:45 15° SSE visible
07 Sep 3.3 20:44:21 10° N 20:48:12 57° E 20:52:01 10° SSE visible
08 Sep 3.3 20:34:57 10° N 20:38:48 54° E 20:42:36 10° SSE visible
